Regional Weather Roundup
Issued by NWS Midland/Odessa, TX

Home | Current Version | Previous Version | Text Only | Print | Product List | Glossary On
Versions: 1 2 3 4 5 6 7 8 9 10 11 12 13 14 15 16 17 18 19 20 21 22 23 24 25 26 27 28 29 30 31 32 33 34 35 36 37 38 39 40 41 42 43 44 45 46 47 48 49 50
000
ASUS44 KMAF 222310
RWRMAF
MIDLAND AREA WEATHER ROUNDUP
NATIONAL WEATHER SERVICE MIDLAND TX
600 PM CDT TUE AUG 22 2017

...IN SOUTHWEST TEXAS AND SOUTHEAST NEW MEXICO...

CITY           SKY/WX    TMP DP  RH WIND       PRES   REMARKS
ALPINE         CLOUDY    74  59  58 SE10G16   30.24F
ANDREWS          N/A     91  61  36 SE9       30.08F
ARTESIA        CLOUDY    90  59  35 CALM      30.09F
BIG SPRING     SUNNY     93  59  31 SE10      30.05F
CARLSBAD       MOSUNNY   87  70  56 W5        30.05F
DRYDEN           N/A     95  61  32 SE10G20   29.99F
FORT STOCKTON  PTSUNNY   94  63  35 S17G23    30.05S
GUAD PASS      CLOUDY    77  63  61 NE5       30.26R
HOBBS          PTSUNNY   88  63  42 SE16G26   30.10F
MARFA          CLOUDY    80  59  48 E14       30.21F
MIDLAND AIRPK  CLOUDY    94  58  29 S9        30.05F
MIDLAND INTL   CLOUDY    88  62  41 W14       30.05S
ODESSA         CLOUDY    87  63  44 SW3       30.06F
PECOS          SUNNY     97  60  29 CALM      30.00F
PRESIDIO       FAIR      93  61  33 CALM      30.04F
SEMINOLE       CLOUDY    91  59  34 S7        30.09F
SNYDER         MOSUNNY   92  59  32 S10       30.04S
WINK           SUNNY     95  60  31 SW5       30.02F
$$
...OTHER STATIONS IN TEXAS...

CITY           SKY/WX    TMP DP  RH WIND       PRES   REMARKS
ABILENE        MOSUNNY   93  61  34 SE10      30.00F
AMARILLO       CLOUDY    76  68  76 NE7       30.19S
AUSTIN         MOSUNNY   97  65  34 E6        29.95F
BROWNSVILLE    MOSUNNY   89  74  60 E13       29.97S
CORPUS CHRISTI MOSUNNY   92  70  48 E16       29.97F
DALLAS FTW     MOSUNNY   96  68  39 SE9       29.94F HX 101
DEL RIO        MOSUNNY   99  60  27 E9        29.93F
EL PASO        MOSUNNY   93  57  29 E5        30.09F
HOUSTON INT    MOSUNNY   91  70  49 E15       29.97F
LUBBOCK        MOSUNNY   89  65  44 SE8       30.09S
SAN ANGELO     SUNNY     96  58  27 E6G17     30.00F
SAN ANTONIO    MOSUNNY   95  65  37 E7        29.98F
WACO           SUNNY     97  65  34 S7        29.95F
WICHITA FALLS  NOT AVBL
$$
...OTHER LOCATIONS IN NEW MEXICO...

CITY           SKY/WX    TMP DP  RH WIND       PRES   REMARKS
ALAMOGORDO     SUNNY     91  50  24 NW3       30.13F
ALBUQUERQUE    CLOUDY    83  52  34 W7        30.23S
CANNON AFB     CLOUDY    74  72  93 E12       30.21S
CLOVIS         CLOUDY    68  63  84 E12       30.22S
HOLLOMAN AFB   SUNNY     94  56  27 NW3       30.13F
ROSWELL        CLOUDY    90  59  35 CALM      30.10F
RUIDOSO        CLOUDY    72  55  56 S12       30.38F
SANTA FE       CLOUDY    81  48  31 VRB3      30.29F
TRUTH OR CONSE CLOUDY    93  51  23 S13G28    30.12F
TUCUMCARI      PTSUNNY   74  66  76 N13       30.21F
$$




USA.gov is the U.S. government's official web portal to all federal, state and local government web resources and services.